Weather in Kuterem

Russia / Republic of Bashkortostan     55°59′33″N   54°31′19″E
temp.,
°C
wind,
m/s
gust,
m/s
humid.,
%
clouds,
%
prec.,
mm/h
press.,
hPa
HPBL,
m
3 march, wed
wed323:000wsw61195100 2.3 998635
02:00−2wsw5109699 0.6 997444
05:00−3wsw5109698 0.9 998398
08:00−4wsw5896100 0.3 998322
11:00−5wsw469699 0.7 999264
14:00−3wsw4696100 0.1 999370
17:00−3wsw4696100 0.4 999421
20:00−4sw3697100 0.6 999213
4 march, thu
thu423:00−5nw71294100 1.8 1000537
02:00−11wnw499568 0.3 1000170
05:00−12w499775 0.3 1001179
08:00−14wsw479892 0.0 1001103
11:00−8sw599596 0.1 1001419
14:00−6sw61094100 0.8 999582
17:00−5ssw71194100 1.4 996746
20:00−5ssw81495100 1.4 993781
5 march, fri
fri523:00−1wsw81483100 2.9 991945
02:00−4wsw10179493 0.4 992784
05:00−6wsw8149297 0.9 996568
08:00−6wsw61093100 0.1 999563
11:00−7wsw4795100 0.2 1000366
14:00−5wnw3493100 0.1 1001398
17:00−6nw3490100 0.3 1002364
20:00−10nw4992100 0.0 1003231
6 march, sat
sat623:00−15nw479357 0.0 1007133
02:00−18wnw34950 0.0 101059
05:00−18wsw34989 0.0 101241
08:00−17sw479790 0.1 1013151
11:00−13sw589594 0.2 1013296
14:00−10sw478983 0.1 1011362
17:00−9ssw368952 0.1 1010376
20:00−12s3392100 0.0 100942
7 march, sun
sun723:00−14s2294100 0.0 100821
02:00−14ssw129799 0.1 100620
05:00−14w229799 0.4 100627
08:00−15nw599694 0.2 1007264
11:00−18wnw479490 0.3 1008264
14:00−16w579270 0.0 1010438
17:00−15wsw479285 0.0 1010484
20:00−19ssw349773 0.0 101053